Time,TemperatureF,DewpointF,PressureIn,WindDirection,WindDirectionDegrees,WindSpeedMPH,WindSpeedGustMPH,Humidity,HourlyPrecipIn,Conditions,Clouds,dailyrainin,SoftwareType,DateUTC
2013-05-13 00:00:00,61.9,-39.9,30.07,ENE,67,1.0,2.0,1,0.00,,,0.00,Weather View 32 v70,2013-05-13 05:00:00,
2013-05-13 00:05:00,61.9,-39.9,30.06,ENE,67,3.0,4.0,1,0.00,,,0.00,Weather View 32 v70,2013-05-13 05:05:00,
2013-05-13 00:10:00,61.4,-40.2,30.06,ENE,67,1.0,4.0,1,0.00,,,0.00,Weather View 32 v70,2013-05-13 05:10:00,
2013-05-13 00:15:00,61.3,-40.3,30.06,ENE,67,1.0,4.0,1,0.00,,,0.00,Weather View 32 v70,2013-05-13 05:15:00,
2013-05-13 00:20:00,61.4,-40.2,30.06,ENE,67,2.0,4.0,1,0.00,,,0.00,Weather View 32 v70,2013-05-13 05:20:00,
2013-05-13 00:25:00,61.3,-40.3,30.06,ENE,67,1.0,4.0,1,0.00,,,0.00,Weather View 32 v70,2013-05-13 05:25:00,
2013-05-13 00:30:00,61.1,-40.4,30.06,ENE,67,1.0,4.0,1,0.00,,,0.00,Weather View 32 v70,2013-05-13 05:30:00,
2013-05-13 00:35:00,61.1,-40.4,30.06,ENE,67,2.0,4.0,1,0.00,,,0.00,Weather View 32 v70,2013-05-13 05:35:00,
2013-05-13 00:40:00,60.9,-40.5,30.06,ENE,67,1.0,4.0,1,0.00,,,0.00,Weather View 32 v70,2013-05-13 05:40:00,
2013-05-13 00:45:00,60.9,-40.5,30.05,ENE,67,2.0,4.0,1,0.00,,,0.00,Weather View 32 v70,2013-05-13 05:45:00,
2013-05-13 00:50:00,60.8,-40.6,30.05,ENE,67,2.0,4.0,1,0.00,,,0.00,Weather View 32 v70,2013-05-13 05:50:00,
2013-05-13 00:55:00,60.7,-40.7,30.05,ENE,67,1.0,4.0,1,0.00,,,0.00,Weather View 32 v70,2013-05-13 05:55:00,
2013-05-13 01:00:00,60.5,-40.8,30.05,ENE,67,1.0,4.0,1,0.00,,,0.00,Weather View 32 v70,2013-05-13 06:00:00,
2013-05-13 01:05:00,60.3,-40.9,30.05,ENE,67,2.0,3.0,1,0.00,,,0.00,Weather View 32 v70,2013-05-13 06:05:00,
2013-05-13 01:10:00,60.1,-41.0,30.05,ENE,67,2.0,3.0,1,0.00,,,0.00,Weather View 32 v70,2013-05-13 06:10:00,
2013-05-13 01:15:00,59.9,-41.1,30.05,ENE,67,0.0,3.0,1,0.00,,,0.00,Weather View 32 v70,2013-05-13 06:15:00,
2013-05-13 01:20:00,59.9,-41.1,30.05,ENE,67,2.0,3.0,1,0.00,,,0.00,Weather View 32 v70,2013-05-13 06:20:00,
2013-05-13 01:25:00,59.8,-41.2,30.05,ENE,67,2.0,3.0,1,0.00,,,0.00,Weather View 32 v70,2013-05-13 06:25:00,
2013-05-13 01:30:00,59.5,-41.4,30.05,ENE,67,3.0,4.0,1,0.00,,,0.00,Weather View 32 v70,2013-05-13 06:30:00,
2013-05-13 01:35:00,59.3,-41.5,30.05,ENE,67,2.0,4.0,1,0.00,,,0.00,Weather View 32 v70,2013-05-13 06:35:00,
2013-05-13 01:40:00,59.1,-41.6,30.05,ENE,67,3.0,4.0,1,0.00,,,0.00,Weather View 32 v70,2013-05-13 06:40:00,
2013-05-13 01:45:00,58.9,-41.8,30.05,ENE,67,2.0,4.0,1,0.00,,,0.00,Weather View 32 v70,2013-05-13 06:45:00,
2013-05-13 01:50:00,58.9,-41.8,30.05,ENE,67,2.0,4.0,1,0.00,,,0.00,Weather View 32 v70,2013-05-13 06:50:00,
2013-05-13 01:55:00,58.9,-41.8,30.05,NE,45,4.0,5.0,1,0.00,,,0.00,Weather View 32 v70,2013-05-13 06:55:00,
2013-05-13 02:00:00,58.6,-41.9,30.05,NE,45,3.0,5.0,1,0.00,,,0.00,Weather View 32 v70,2013-05-13 07:00:00,
2013-05-13 02:05:00,58.6,-41.9,30.05,NE,45,3.0,5.0,1,0.00,,,0.00,Weather View 32 v70,2013-05-13 07:05:00,
2013-05-13 02:10:00,58.6,-41.9,30.05,NE,45,2.0,5.0,1,0.00,,,0.00,Weather View 32 v70,2013-05-13 07:10:00,
2013-05-13 02:15:00,58.6,-41.9,30.05,NE,45,1.0,5.0,1,0.00,,,0.00,Weather View 32 v70,2013-05-13 07:15:00,
2013-05-13 02:20:00,58.7,-41.9,30.05,ENE,67,1.0,5.0,1,0.00,,,0.00,Weather View 32 v70,2013-05-13 07:20:00,
2013-05-13 02:25:00,58.5,-42.0,30.05,ENE,67,0.0,5.0,1,0.00,,,0.00,Weather View 32 v70,2013-05-13 07:25:00,
2013-05-13 02:30:00,58.3,-42.1,30.05,ENE,67,0.0,5.0,1,0.00,,,0.00,Weather View 32 v70,2013-05-13 07:30:00,
2013-05-13 02:35:00,58.2,-42.2,30.05,ENE,67,0.0,5.0,1,0.00,,,0.00,Weather View 32 v70,2013-05-13 07:35:00,
2013-05-13 02:40:00,58.4,-42.1,30.05,East,90,2.0,5.0,1,0.00,,,0.00,Weather View 32 v70,2013-05-13 07:40:00,
2013-05-13 02:45:00,58.1,-42.2,30.05,East,90,0.0,5.0,1,0.00,,,0.00,Weather View 32 v70,2013-05-13 07:45:00,
2013-05-13 02:50:00,57.6,-42.5,30.05,East,90,0.0,5.0,1,0.00,,,0.00,Weather View 32 v70,2013-05-13 07:50:00,
2013-05-13 02:55:00,56.9,-43.0,30.05,East,90,0.0,5.0,1,0.00,,,0.00,Weather View 32 v70,2013-05-13 07:55:00,
2013-05-13 03:00:00,56.4,-43.3,30.05,East,90,0.0,4.0,1,0.00,,,0.00,Weather View 32 v70,2013-05-13 08:00:00,
2013-05-13 03:05:00,56.3,-43.3,30.05,East,90,0.0,4.0,1,0.00,,,0.00,Weather View 32 v70,2013-05-13 08:05:00,
2013-05-13 03:10:00,56.3,-43.3,30.05,SSW,202,1.0,2.0,1,0.00,,,0.00,Weather View 32 v70,2013-05-13 08:10:00,
2013-05-13 03:15:00,56.1,-43.5,30.05,SSW,202,1.0,2.0,1,0.00,,,0.00,Weather View 32 v70,2013-05-13 08:15:00,
2013-05-13 03:20:00,55.8,-43.6,30.05,SSW,202,0.0,2.0,1,0.00,,,0.00,Weather View 32 v70,2013-05-13 08:20:00,
2013-05-13 03:25:00,55.3,-43.9,30.05,SSW,202,0.0,2.0,1,0.00,,,0.00,Weather View 32 v70,2013-05-13 08:25:00,
2013-05-13 03:30:00,54.9,-44.2,30.04,SSW,202,0.0,2.0,1,0.00,,,0.00,Weather View 32 v70,2013-05-13 08:30:00,
2013-05-13 03:35:00,54.9,-44.2,30.04,SSW,202,2.0,2.0,1,0.00,,,0.00,Weather View 32 v70,2013-05-13 08:35:00,
2013-05-13 03:40:00,55.3,-43.9,30.04,SSW,202,2.0,2.0,1,0.00,,,0.00,Weather View 32 v70,2013-05-13 08:40:00,
2013-05-13 03:45:00,54.9,-44.2,30.04,SSW,202,1.0,2.0,1,0.00,,,0.00,Weather View 32 v70,2013-05-13 08:45:00,
2013-05-13 03:50:00,55.1,-44.1,30.04,SSW,202,0.0,2.0,1,0.00,,,0.00,Weather View 32 v70,2013-05-13 08:50:00,
2013-05-13 03:55:00,54.9,-44.2,30.05,SSW,202,0.0,2.0,1,0.00,,,0.00,Weather View 32 v70,2013-05-13 08:55:00,
2013-05-13 04:00:00,54.9,-44.2,30.05,SSW,202,0.0,2.0,1,0.00,,,0.00,Weather View 32 v70,2013-05-13 09:00:00,
2013-05-13 04:05:00,54.9,-44.2,30.05,ENE,67,2.0,2.0,1,0.00,,,0.00,Weather View 32 v70,2013-05-13 09:05:00,
2013-05-13 04:10:00,54.8,-44.2,30.05,ENE,67,3.0,3.0,1,0.00,,,0.00,Weather View 32 v70,2013-05-13 09:10:00,
2013-05-13 04:15:00,54.7,-44.3,30.05,ENE,67,2.0,4.0,1,0.00,,,0.00,Weather View 32 v70,2013-05-13 09:15:00,
2013-05-13 04:20:00,54.6,-44.4,30.05,ENE,67,2.0,4.0,1,0.00,,,0.00,Weather View 32 v70,2013-05-13 09:20:00,
2013-05-13 04:25:00,54.7,-44.3,30.05,ENE,67,2.0,4.0,1,0.00,,,0.00,Weather View 32 v70,2013-05-13 09:25:00,
2013-05-13 04:30:00,54.6,-44.4,30.05,ENE,67,2.0,4.0,1,0.00,,,0.00,Weather View 32 v70,2013-05-13 09:30:00,
2013-05-13 04:35:00,54.6,-44.4,30.05,ENE,67,2.0,4.0,1,0.00,,,0.00,Weather View 32 v70,2013-05-13 09:35:00,
2013-05-13 04:40:00,54.7,-44.3,30.05,ENE,67,2.0,4.0,1,0.00,,,0.00,Weather View 32 v70,2013-05-13 09:40:00,
2013-05-13 04:45:00,54.7,-44.3,30.05,ENE,67,2.0,4.0,1,0.00,,,0.00,Weather View 32 v70,2013-05-13 09:45:00,
2013-05-13 04:50:00,54.8,-44.2,30.05,ENE,67,1.0,4.0,1,0.00,,,0.00,Weather View 32 v70,2013-05-13 09:50:00,
2013-05-13 04:55:00,54.9,-44.2,30.05,ENE,67,0.0,4.0,1,0.00,,,0.00,Weather View 32 v70,2013-05-13 09:55:00,
2013-05-13 05:00:00,54.9,-44.2,30.05,ENE,67,1.0,4.0,1,0.00,,,0.00,Weather View 32 v70,2013-05-13 10:00:00,
2013-05-13 05:05:00,54.5,-44.4,30.05,ENE,67,0.0,4.0,1,0.00,,,0.00,Weather View 32 v70,2013-05-13 10:05:00,
2013-05-13 05:10:00,54.1,-44.7,30.05,ENE,67,0.0,4.0,1,0.00,,,0.00,Weather View 32 v70,2013-05-13 10:10:00,
2013-05-13 05:15:00,53.8,-44.9,30.05,ENE,67,0.0,4.0,1,0.00,,,0.00,Weather View 32 v70,2013-05-13 10:15:00,
2013-05-13 05:20:00,53.9,-44.8,30.05,ENE,67,2.0,4.0,1,0.00,,,0.00,Weather View 32 v70,2013-05-13 10:20:00,
2013-05-13 05:25:00,53.9,-44.8,30.05,ENE,67,0.0,4.0,1,0.00,,,0.00,Weather View 32 v70,2013-05-13 10:25:00,
2013-05-13 05:30:00,53.7,-44.9,30.06,ENE,67,0.0,3.0,1,0.00,,,0.00,Weather View 32 v70,2013-05-13 10:30:00,
2013-05-13 05:35:00,53.6,-45.0,30.06,ENE,67,2.0,2.0,1,0.00,,,0.00,Weather View 32 v70,2013-05-13 10:35:00,
2013-05-13 05:40:00,53.6,-45.0,30.06,ENE,67,1.0,2.0,1,0.00,,,0.00,Weather View 32 v70,2013-05-13 10:40:00,
2013-05-13 05:45:00,53.5,-45.0,30.06,ENE,67,1.0,2.0,1,0.00,,,0.00,Weather View 32 v70,2013-05-13 10:45:00,
2013-05-13 05:50:00,53.4,-45.1,30.06,ENE,67,2.0,2.0,1,0.00,,,0.00,Weather View 32 v70,2013-05-13 10:50:00,
2013-05-13 05:55:00,53.3,-45.2,30.06,ENE,67,0.0,2.0,1,0.00,,,0.00,Weather View 32 v70,2013-05-13 10:55:00,
2013-05-13 06:00:00,53.2,-45.2,30.06,ENE,67,1.0,2.0,1,0.00,,,0.00,Weather View 32 v70,2013-05-13 11:00:00,
2013-05-13 06:05:00,53.4,-45.1,30.06,ENE,67,2.0,2.0,1,0.00,,,0.00,Weather View 32 v70,2013-05-13 11:05:00,
2013-05-13 06:10:00,53.6,-45.0,30.06,ENE,67,1.0,2.0,1,0.00,,,0.00,Weather View 32 v70,2013-05-13 11:10:00,
2013-05-13 06:15:00,53.5,-45.0,30.07,ENE,67,1.0,2.0,1,0.00,,,0.00,Weather View 32 v70,2013-05-13 11:15:00,
2013-05-13 06:21:00,53.4,-45.1,30.07,ENE,67,2.0,2.0,1,0.00,,,0.00,Weather View 32 v70,2013-05-13 11:21:00,
2013-05-13 06:26:00,53.6,-45.0,30.07,ENE,67,2.0,2.0,1,0.00,,,0.00,Weather View 32 v70,2013-05-13 11:26:00,
2013-05-13 06:31:00,53.6,-45.0,30.07,ENE,67,2.0,2.0,1,0.00,,,0.00,Weather View 32 v70,2013-05-13 11:31:00,
2013-05-13 06:36:00,53.8,-44.9,30.07,ENE,67,2.0,2.0,1,0.00,,,0.00,Weather View 32 v70,2013-05-13 11:36:00,
2013-05-13 06:41:00,54.1,-44.7,30.08,ENE,67,1.0,3.0,1,0.00,,,0.00,Weather View 32 v70,2013-05-13 11:41:00,
2013-05-13 06:46:00,54.5,-44.4,30.08,ENE,67,3.0,4.0,1,0.00,,,0.00,Weather View 32 v70,2013-05-13 11:46:00,
2013-05-13 06:51:00,54.6,-44.4,30.08,ENE,67,2.0,4.0,1,0.00,,,0.00,Weather View 32 v70,2013-05-13 11:51:00,
2013-05-13 06:56:00,54.9,-44.2,30.08,ENE,67,2.0,4.0,1,0.00,,,0.00,Weather View 32 v70,2013-05-13 11:56:00,
2013-05-13 07:01:00,55.3,-43.9,30.09,ENE,67,2.0,4.0,1,0.00,,,0.00,Weather View 32 v70,2013-05-13 12:01:00,
2013-05-13 07:06:00,55.7,-43.7,30.09,ENE,67,2.0,4.0,1,0.00,,,0.00,Weather View 32 v70,2013-05-13 12:06:00,
2013-05-13 07:11:00,55.9,-43.6,30.09,ENE,67,1.0,4.0,1,0.00,,,0.00,Weather View 32 v70,2013-05-13 12:11:00,
2013-05-13 07:16:00,56.4,-43.3,30.09,ENE,67,2.0,4.0,1,0.00,,,0.00,Weather View 32 v70,2013-05-13 12:16:00,
2013-05-13 07:21:00,56.9,-43.0,30.09,East,90,2.0,4.0,1,0.00,,,0.00,Weather View 32 v70,2013-05-13 12:21:00,
2013-05-13 07:26:00,57.5,-42.6,30.09,ESE,112,2.0,4.0,1,0.00,,,0.00,Weather View 32 v70,2013-05-13 12:26:00,
2013-05-13 07:31:00,57.7,-42.5,30.09,ESE,112,3.0,5.0,1,0.00,,,0.00,Weather View 32 v70,2013-05-13 12:31:00,
2013-05-13 07:36:00,57.9,-42.4,30.10,ESE,112,4.0,5.0,1,0.00,,,0.00,Weather View 32 v70,2013-05-13 12:36:00,
2013-05-13 07:41:00,58.4,-42.1,30.10,East,90,4.0,5.0,1,0.00,,,0.00,Weather View 32 v70,2013-05-13 12:41:00,
2013-05-13 07:46:00,58.7,-41.9,30.11,ESE,112,2.0,5.0,1,0.00,,,0.00,Weather View 32 v70,2013-05-13 12:46:00,
2013-05-13 07:51:00,59.2,-41.6,30.11,ESE,112,2.0,5.0,1,0.00,,,0.00,Weather View 32 v70,2013-05-13 12:51:00,
2013-05-13 07:56:00,59.7,-41.3,30.11,SE,135,2.0,5.0,1,0.00,,,0.00,Weather View 32 v70,2013-05-13 12:56:00,
2013-05-13 08:01:00,59.9,-41.1,30.11,SE,135,3.0,6.0,1,0.00,,,0.00,Weather View 32 v70,2013-05-13 13:01:00,
2013-05-13 08:06:00,60.4,-40.8,30.11,ESE,112,3.0,6.0,1,0.00,,,0.00,Weather View 32 v70,2013-05-13 13:06:00,
2013-05-13 08:11:00,60.8,-40.6,30.11,ESE,112,5.0,7.0,1,0.00,,,0.00,Weather View 32 v70,2013-05-13 13:11:00,
2013-05-13 08:16:00,61.2,-40.4,30.11,SE,135,5.0,7.0,1,0.00,,,0.00,Weather View 32 v70,2013-05-13 13:16:00,
2013-05-13 08:21:00,61.8,-40.0,30.12,ESE,112,3.0,7.0,1,0.00,,,0.00,Weather View 32 v70,2013-05-13 13:21:00,
2013-05-13 08:26:00,62.6,-39.5,30.12,ESE,112,3.0,7.0,1,0.00,,,0.00,Weather View 32 v70,2013-05-13 13:26:00,
2013-05-13 08:31:00,62.8,-39.4,30.13,ESE,112,4.0,7.0,1,0.00,,,0.00,Weather View 32 v70,2013-05-13 13:31:00,
2013-05-13 08:36:00,63.5,-39.0,30.13,ESE,112,3.0,7.0,1,0.00,,,0.00,Weather View 32 v70,2013-05-13 13:36:00,
2013-05-13 08:41:00,64.0,-38.7,30.14,ESE,112,6.0,7.0,1,0.00,,,0.00,Weather View 32 v70,2013-05-13 13:41:00,
2013-05-13 08:46:00,64.3,-38.5,30.14,ESE,112,5.0,9.0,1,0.00,,,0.00,Weather View 32 v70,2013-05-13 13:46:00,
2013-05-13 08:51:00,64.7,-38.2,30.14,ESE,112,5.0,9.0,1,0.00,,,0.00,Weather View 32 v70,2013-05-13 13:51:00,
2013-05-13 08:56:00,65.6,-37.7,30.14,SE,135,5.0,9.0,1,0.00,,,0.00,Weather View 32 v70,2013-05-13 13:56:00,
2013-05-13 09:01:00,65.6,-37.7,30.15,ESE,112,7.0,9.0,1,0.00,,,0.00,Weather View 32 v70,2013-05-13 14:01:00,
2013-05-13 09:06:00,65.9,-37.5,30.16,SE,135,4.0,9.0,1,0.00,,,0.00,Weather View 32 v70,2013-05-13 14:06:00,
2013-05-13 09:11:00,66.1,-37.4,30.16,ESE,112,4.0,9.0,1,0.00,,,0.00,Weather View 32 v70,2013-05-13 14:11:00,
2013-05-13 09:16:00,66.6,-37.1,30.16,ESE,112,6.0,9.0,1,0.00,,,0.00,Weather View 32 v70,2013-05-13 14:16:00,
2013-05-13 09:21:00,66.8,-37.0,30.16,SSE,157,2.0,9.0,1,0.00,,,0.00,Weather View 32 v70,2013-05-13 14:21:00,
2013-05-13 09:26:00,66.9,-36.9,30.17,ESE,112,6.0,10.0,1,0.00,,,0.00,Weather View 32 v70,2013-05-13 14:26:00,
2013-05-13 09:31:00,67.3,-36.7,30.17,ESE,112,4.0,11.0,1,0.00,,,0.00,Weather View 32 v70,2013-05-13 14:31:00,
2013-05-13 09:36:00,67.7,-36.4,30.17,SE,135,11.0,15.0,1,0.00,,,0.00,Weather View 32 v70,2013-05-13 14:36:00,
2013-05-13 09:41:00,67.9,-36.3,30.17,SSE,157,3.0,15.0,1,0.00,,,0.00,Weather View 32 v70,2013-05-13 14:41:00,
2013-05-13 09:46:00,68.7,-35.8,30.17,SE,135,4.0,15.0,1,0.00,,,0.00,Weather View 32 v70,2013-05-13 14:46:00,
2013-05-13 09:51:00,68.7,-35.8,30.17,SSE,157,18.0,18.0,1,0.00,,,0.00,Weather View 32 v70,2013-05-13 14:51:00,
2013-05-13 09:56:00,68.6,-35.9,30.17,SE,135,12.0,18.0,1,0.00,,,0.00,Weather View 32 v70,2013-05-13 14:56:00,
2013-05-13 10:01:00,69.2,-35.5,30.17,ESE,112,3.0,18.0,1,0.00,,,0.00,Weather View 32 v70,2013-05-13 15:01:00,
2013-05-13 10:06:00,69.3,-35.5,30.18,SE,135,7.0,18.0,1,0.00,,,0.00,Weather View 32 v70,2013-05-13 15:06:00,
2013-05-13 10:11:00,69.5,-35.4,30.17,SE,135,6.0,18.0,1,0.00,,,0.00,Weather View 32 v70,2013-05-13 15:11:00,
2013-05-13 10:16:00,69.8,-35.2,30.17,SSE,157,6.0,18.0,1,0.00,,,0.00,Weather View 32 v70,2013-05-13 15:16:00,
2013-05-13 10:21:00,69.8,-35.2,30.17,ESE,112,5.0,18.0,1,0.00,,,0.00,Weather View 32 v70,2013-05-13 15:21:00,
2013-05-13 10:26:00,70.1,-35.0,30.18,SSE,157,7.0,18.0,1,0.00,,,0.00,Weather View 32 v70,2013-05-13 15:26:00,
2013-05-13 10:31:00,70.1,-35.0,30.18,ESE,112,3.0,18.0,1,0.00,,,0.00,Weather View 32 v70,2013-05-13 15:31:00,
2013-05-13 10:36:00,70.2,-34.9,30.18,East,90,9.0,18.0,1,0.00,,,0.00,Weather View 32 v70,2013-05-13 15:36:00,
2013-05-13 10:41:00,70.6,-34.7,30.18,ESE,112,6.0,18.0,1,0.00,,,0.00,Weather View 32 v70,2013-05-13 15:41:00,
2013-05-13 10:46:00,70.9,-34.5,30.18,ESE,112,9.0,18.0,1,0.00,,,0.00,Weather View 32 v70,2013-05-13 15:46:00,
2013-05-13 10:51:00,70.9,-34.5,30.18,ESE,112,4.0,18.0,1,0.00,,,0.00,Weather View 32 v70,2013-05-13 15:51:00,
2013-05-13 10:56:00,71.6,-34.1,30.18,SE,135,7.0,15.0,1,0.00,,,0.00,Weather View 32 v70,2013-05-13 15:56:00,
2013-05-13 11:01:00,71.4,-34.2,30.18,SSE,157,5.0,15.0,1,0.00,,,0.00,Weather View 32 v70,2013-05-13 16:01:00,
2013-05-13 11:06:00,72.2,-33.7,30.18,SE,135,7.0,15.0,1,0.00,,,0.00,Weather View 32 v70,2013-05-13 16:06:00,
2013-05-13 11:11:00,71.7,-34.0,30.18,SSE,157,9.0,15.0,1,0.00,,,0.00,Weather View 32 v70,2013-05-13 16:11:00,
2013-05-13 11:16:00,71.6,-34.1,30.18,ESE,112,7.0,15.0,1,0.00,,,0.00,Weather View 32 v70,2013-05-13 16:16:00,
2013-05-13 11:21:00,72.7,-33.4,30.18,South,180,4.0,15.0,1,0.00,,,0.00,Weather View 32 v70,2013-05-13 16:21:00,
2013-05-13 11:26:00,73.1,-33.2,30.18,South,180,6.0,14.0,1,0.00,,,0.00,Weather View 32 v70,2013-05-13 16:26:00,
2013-05-13 11:31:00,72.7,-33.4,30.17,SE,135,3.0,14.0,1,0.00,,,0.00,Weather View 32 v70,2013-05-13 16:31:00,
2013-05-13 11:36:00,73.0,-33.3,30.17,South,180,6.0,14.0,1,0.00,,,0.00,Weather View 32 v70,2013-05-13 16:36:00,
2013-05-13 11:41:00,72.9,-33.3,30.17,South,180,6.0,14.0,1,0.00,,,0.00,Weather View 32 v70,2013-05-13 16:41:00,
2013-05-13 11:46:00,72.7,-33.4,30.17,ESE,112,6.0,14.0,1,0.00,,,0.00,Weather View 32 v70,2013-05-13 16:46:00,
2013-05-13 11:51:00,73.1,-33.2,30.17,ESE,112,2.0,14.0,1,0.00,,,0.00,Weather View 32 v70,2013-05-13 16:51:00,
2013-05-13 11:56:00,73.6,-32.9,30.17,SE,135,7.0,14.0,1,0.00,,,0.00,Weather View 32 v70,2013-05-13 16:56:00,
2013-05-13 12:01:00,73.1,-33.2,30.17,SSW,202,2.0,13.0,1,0.00,,,0.00,Weather View 32 v70,2013-05-13 17:01:00,
2013-05-13 12:06:00,73.4,-33.0,30.17,SSE,157,6.0,13.0,1,0.00,,,0.00,Weather View 32 v70,2013-05-13 17:06:00,
2013-05-13 12:11:00,73.7,-32.8,30.17,ESE,112,2.0,12.0,1,0.00,,,0.00,Weather View 32 v70,2013-05-13 17:11:00,
2013-05-13 12:16:00,73.9,-32.7,30.17,SSW,202,6.0,12.0,1,0.00,,,0.00,Weather View 32 v70,2013-05-13 17:16:00,
2013-05-13 12:21:00,74.0,-32.7,30.17,South,180,1.0,12.0,1,0.00,,,0.00,Weather View 32 v70,2013-05-13 17:21:00,
2013-05-13 12:26:00,74.5,-32.4,30.17,SSE,157,8.0,12.0,1,0.00,,,0.00,Weather View 32 v70,2013-05-13 17:26:00,
2013-05-13 12:31:00,74.9,-32.1,30.17,South,180,8.0,12.0,1,0.00,,,0.00,Weather View 32 v70,2013-05-13 17:31:00,
2013-05-13 12:36:00,74.2,-32.5,30.17,SE,135,6.0,12.0,1,0.00,,,0.00,Weather View 32 v70,2013-05-13 17:36:00,
2013-05-13 12:41:00,74.4,-32.4,30.16,SSE,157,1.0,12.0,1,0.00,,,0.00,Weather View 32 v70,2013-05-13 17:41:00,
2013-05-13 12:46:00,75.2,-31.9,30.16,SW,225,4.0,12.0,1,0.00,,,0.00,Weather View 32 v70,2013-05-13 17:46:00,
2013-05-13 12:51:00,75.2,-31.9,30.16,SSE,157,8.0,12.0,1,0.00,,,0.00,Weather View 32 v70,2013-05-13 17:51:00,
2013-05-13 12:56:00,75.0,-32.1,30.16,SE,135,7.0,12.0,1,0.00,,,0.00,Weather View 32 v70,2013-05-13 17:56:00,
2013-05-13 13:01:00,74.5,-32.4,30.15,South,180,4.0,12.0,1,0.00,,,0.00,Weather View 32 v70,2013-05-13 18:01:00,
2013-05-13 13:07:00,75.7,-31.6,30.15,South,180,3.0,12.0,1,0.00,,,0.00,Weather View 32 v70,2013-05-13 18:07:00,
2013-05-13 13:12:00,75.9,-31.5,30.15,SE,135,8.0,12.0,1,0.00,,,0.00,Weather View 32 v70,2013-05-13 18:12:00,
2013-05-13 13:17:00,75.3,-31.9,30.15,South,180,2.0,12.0,1,0.00,,,0.00,Weather View 32 v70,2013-05-13 18:17:00,
2013-05-13 13:22:00,74.8,-32.2,30.15,SE,135,6.0,12.0,1,0.00,,,0.00,Weather View 32 v70,2013-05-13 18:22:00,
2013-05-13 13:27:00,75.2,-31.9,30.15,ESE,112,2.0,12.0,1,0.00,,,0.00,Weather View 32 v70,2013-05-13 18:27:00,
2013-05-13 13:32:00,75.6,-31.7,30.15,SE,135,8.0,12.0,1,0.00,,,0.00,Weather View 32 v70,2013-05-13 18:32:00,
2013-05-13 13:37:00,76.3,-31.3,30.14,South,180,2.0,12.0,1,0.00,,,0.00,Weather View 32 v70,2013-05-13 18:37:00,
2013-05-13 13:42:00,75.5,-31.8,30.14,SE,135,8.0,12.0,1,0.00,,,0.00,Weather View 32 v70,2013-05-13 18:42:00,
2013-05-13 13:47:00,76.4,-31.2,30.14,SSW,202,9.0,12.0,1,0.00,,,0.00,Weather View 32 v70,2013-05-13 18:47:00,
2013-05-13 13:52:00,76.5,-31.2,30.14,South,180,6.0,11.0,1,0.00,,,0.00,Weather View 32 v70,2013-05-13 18:52:00,
2013-05-13 13:57:00,75.8,-31.6,30.14,ESE,112,1.0,11.0,1,0.00,,,0.00,Weather View 32 v70,2013-05-13 18:57:00,
2013-05-13 14:02:00,76.4,-31.2,30.14,South,180,8.0,11.0,1,0.00,,,0.00,Weather View 32 v70,2013-05-13 19:02:00,
2013-05-13 14:07:00,75.9,-31.5,30.13,SSE,157,2.0,12.0,1,0.00,,,0.00,Weather View 32 v70,2013-05-13 19:07:00,
2013-05-13 14:12:00,76.3,-31.3,30.13,ESE,112,9.0,12.0,1,0.00,,,0.00,Weather View 32 v70,2013-05-13 19:12:00,
2013-05-13 14:17:00,77.7,-30.4,30.13,South,180,3.0,12.0,1,0.00,,,0.00,Weather View 32 v70,2013-05-13 19:17:00,
2013-05-13 14:22:00,77.9,-30.3,30.13,SSE,157,2.0,12.0,1,0.00,,,0.00,Weather View 32 v70,2013-05-13 19:22:00,
2013-05-13 14:27:00,77.8,-30.4,30.13,ESE,112,3.0,12.0,1,0.00,,,0.00,Weather View 32 v70,2013-05-13 19:27:00,
2013-05-13 14:32:00,78.5,-30.0,30.13,WSW,247,7.0,12.0,1,0.00,,,0.00,Weather View 32 v70,2013-05-13 19:32:00,
2013-05-13 14:37:00,78.7,-29.8,30.13,South,180,6.0,12.0,1,0.00,,,0.00,Weather View 32 v70,2013-05-13 19:37:00,
2013-05-13 14:42:00,78.7,-29.8,30.13,SW,225,2.0,12.0,1,0.00,,,0.00,Weather View 32 v70,2013-05-13 19:42:00,
2013-05-13 14:47:00,78.7,-29.8,30.12,South,180,11.0,12.0,1,0.00,,,0.00,Weather View 32 v70,2013-05-13 19:47:00,
2013-05-13 14:52:00,78.5,-30.0,30.12,South,180,4.0,12.0,1,0.00,,,0.00,Weather View 32 v70,2013-05-13 19:52:00,
2013-05-13 14:57:00,78.5,-30.0,30.12,SSE,157,9.0,14.0,1,0.00,,,0.00,Weather View 32 v70,2013-05-13 19:57:00,
2013-05-13 15:02:00,78.7,-29.8,30.12,SE,135,2.0,14.0,1,0.00,,,0.00,Weather View 32 v70,2013-05-13 20:02:00,
2013-05-13 15:07:00,78.4,-30.0,30.12,SSE,157,6.0,14.0,1,0.00,,,0.00,Weather View 32 v70,2013-05-13 20:07:00,
2013-05-13 15:12:00,78.9,-29.7,30.12,SW,225,3.0,14.0,1,0.00,,,0.00,Weather View 32 v70,2013-05-13 20:12:00,
2013-05-13 15:17:00,79.0,-29.7,30.12,SSW,202,6.0,14.0,1,0.00,,,0.00,Weather View 32 v70,2013-05-13 20:17:00,
2013-05-13 15:22:00,78.8,-29.8,30.12,SW,225,2.0,14.0,1,0.00,,,0.00,Weather View 32 v70,2013-05-13 20:22:00,
2013-05-13 15:27:00,79.6,-29.3,30.11,SSW,202,8.0,14.0,1,0.00,,,0.00,Weather View 32 v70,2013-05-13 20:27:00,
2013-05-13 15:32:00,78.7,-29.8,30.12,SW,225,8.0,14.0,1,0.00,,,0.00,Weather View 32 v70,2013-05-13 20:32:00,
2013-05-13 15:37:00,78.9,-29.7,30.11,SSE,157,7.0,14.0,1,0.00,,,0.00,Weather View 32 v70,2013-05-13 20:37:00,
2013-05-13 15:42:00,77.3,-30.7,30.11,South,180,5.0,14.0,1,0.00,,,0.00,Weather View 32 v70,2013-05-13 20:42:00,
2013-05-13 15:47:00,78.7,-29.8,30.11,South,180,6.0,14.0,1,0.00,,,0.00,Weather View 32 v70,2013-05-13 20:47:00,
2013-05-13 15:52:00,78.2,-30.1,30.11,SSW,202,8.0,14.0,1,0.00,,,0.00,Weather View 32 v70,2013-05-13 20:52:00,
2013-05-13 15:57:00,79.2,-29.6,30.11,SW,225,9.0,13.0,1,0.00,,,0.00,Weather View 32 v70,2013-05-13 20:57:00,
2013-05-13 16:03:00,79.3,-29.5,30.11,South,180,4.0,13.0,1,0.00,,,0.00,Weather View 32 v70,2013-05-13 21:03:00,
2013-05-13 16:08:00,79.7,-29.3,30.10,South,180,8.0,13.0,1,0.00,,,0.00,Weather View 32 v70,2013-05-13 21:08:00,
2013-05-13 16:13:00,79.7,-29.3,30.10,South,180,6.0,13.0,1,0.00,,,0.00,Weather View 32 v70,2013-05-13 21:13:00,
2013-05-13 16:18:00,80.2,-29.0,30.10,South,180,7.0,13.0,1,0.00,,,0.00,Weather View 32 v70,2013-05-13 21:18:00,
2013-05-13 16:23:00,79.8,-29.2,30.10,South,180,11.0,13.0,1,0.00,,,0.00,Weather View 32 v70,2013-05-13 21:23:00,
2013-05-13 16:28:00,79.3,-29.5,30.10,SSW,202,7.0,13.0,1,0.00,,,0.00,Weather View 32 v70,2013-05-13 21:28:00,
2013-05-13 16:33:00,79.4,-29.4,30.10,SSW,202,7.0,13.0,1,0.00,,,0.00,Weather View 32 v70,2013-05-13 21:33:00,
2013-05-13 16:38:00,79.6,-29.3,30.10,South,180,5.0,13.0,1,0.00,,,0.00,Weather View 32 v70,2013-05-13 21:38:00,
2013-05-13 16:43:00,79.9,-29.1,30.10,South,180,4.0,13.0,1,0.00,,,0.00,Weather View 32 v70,2013-05-13 21:43:00,
2013-05-13 16:48:00,79.6,-29.3,30.10,SW,225,6.0,13.0,1,0.00,,,0.00,Weather View 32 v70,2013-05-13 21:48:00,
2013-05-13 16:53:00,79.6,-29.3,30.10,ESE,112,5.0,13.0,1,0.00,,,0.00,Weather View 32 v70,2013-05-13 21:53:00,
2013-05-13 16:58:00,78.6,-29.9,30.10,SSE,157,9.0,12.0,1,0.00,,,0.00,Weather View 32 v70,2013-05-13 21:58:00,
2013-05-13 17:03:00,78.7,-29.8,30.10,SE,135,6.0,12.0,1,0.00,,,0.00,Weather View 32 v70,2013-05-13 22:03:00,
2013-05-13 17:08:00,79.2,-29.6,30.10,SSW,202,5.0,12.0,1,0.00,,,0.00,Weather View 32 v70,2013-05-13 22:08:00,
2013-05-13 17:13:00,79.9,-29.1,30.09,SW,225,1.0,12.0,1,0.00,,,0.00,Weather View 32 v70,2013-05-13 22:13:00,
2013-05-13 17:18:00,78.9,-29.7,30.09,SSE,157,4.0,12.0,1,0.00,,,0.00,Weather View 32 v70,2013-05-13 22:18:00,
2013-05-13 17:23:00,78.9,-29.7,30.09,South,180,6.0,12.0,1,0.00,,,0.00,Weather View 32 v70,2013-05-13 22:23:00,
2013-05-13 17:28:00,80.0,-29.1,30.09,South,180,7.0,12.0,1,0.00,,,0.00,Weather View 32 v70,2013-05-13 22:28:00,
2013-05-13 17:33:00,80.1,-29.0,30.09,SSE,157,6.0,12.0,1,0.00,,,0.00,Weather View 32 v70,2013-05-13 22:33:00,
2013-05-13 17:38:00,79.2,-29.6,30.09,South,180,4.0,11.0,1,0.00,,,0.00,Weather View 32 v70,2013-05-13 22:38:00,
2013-05-13 17:43:00,79.3,-29.5,30.09,SSW,202,5.0,11.0,1,0.00,,,0.00,Weather View 32 v70,2013-05-13 22:43:00,
2013-05-13 17:48:00,78.9,-29.7,30.09,South,180,4.0,11.0,1,0.00,,,0.00,Weather View 32 v70,2013-05-13 22:48:00,
2013-05-13 17:53:00,79.3,-29.5,30.09,SSE,157,7.0,11.0,1,0.00,,,0.00,Weather View 32 v70,2013-05-13 22:53:00,
2013-05-13 17:58:00,78.2,-30.1,30.09,SE,135,6.0,11.0,1,0.00,,,0.00,Weather View 32 v70,2013-05-13 22:58:00,
2013-05-13 18:03:00,79.1,-29.6,30.08,SSW,202,4.0,11.0,1,0.00,,,0.00,Weather View 32 v70,2013-05-13 23:03:00,
2013-05-13 18:08:00,79.7,-29.3,30.08,SSW,202,7.0,11.0,1,0.00,,,0.00,Weather View 32 v70,2013-05-13 23:08:00,
2013-05-13 18:13:00,79.1,-29.6,30.08,SSW,202,4.0,11.0,1,0.00,,,0.00,Weather View 32 v70,2013-05-13 23:13:00,
2013-05-13 18:18:00,78.8,-29.8,30.08,SW,225,3.0,11.0,1,0.00,,,0.00,Weather View 32 v70,2013-05-13 23:18:00,
2013-05-13 18:23:00,78.4,-30.0,30.08,SSE,157,6.0,11.0,1,0.00,,,0.00,Weather View 32 v70,2013-05-13 23:23:00,
2013-05-13 18:28:00,78.7,-29.8,30.08,South,180,7.0,11.0,1,0.00,,,0.00,Weather View 32 v70,2013-05-13 23:28:00,
2013-05-13 18:34:00,78.3,-30.1,30.08,SSW,202,8.0,11.0,1,0.00,,,0.00,Weather View 32 v70,2013-05-13 23:34:00,
2013-05-13 18:39:00,77.9,-30.3,30.08,South,180,9.0,11.0,1,0.00,,,0.00,Weather View 32 v70,2013-05-13 23:39:00,
2013-05-13 18:44:00,77.6,-30.5,30.08,South,180,7.0,11.0,1,0.00,,,0.00,Weather View 32 v70,2013-05-13 23:44:00,
2013-05-13 18:49:00,77.2,-30.7,30.08,SSE,157,6.0,11.0,1,0.00,,,0.00,Weather View 32 v70,2013-05-13 23:49:00,
2013-05-13 18:54:00,76.7,-31.0,30.08,South,180,5.0,11.0,1,0.00,,,0.00,Weather View 32 v70,2013-05-13 23:54:00,
2013-05-13 18:59:00,76.7,-31.0,30.08,South,180,6.0,11.0,1,0.00,,,0.00,Weather View 32 v70,2013-05-13 23:59:00,
2013-05-13 19:04:00,76.5,-31.2,30.08,South,180,4.0,11.0,1,0.00,,,0.00,Weather View 32 v70,2013-05-14 00:04:00,
2013-05-13 19:09:00,75.9,-31.5,30.08,South,180,7.0,11.0,1,0.00,,,0.00,Weather View 32 v70,2013-05-14 00:09:00,
2013-05-13 19:14:00,75.6,-31.7,30.08,South,180,4.0,11.0,1,0.00,,,0.00,Weather View 32 v70,2013-05-14 00:14:00,
2013-05-13 19:19:00,75.3,-31.9,30.08,South,180,5.0,11.0,1,0.00,,,0.00,Weather View 32 v70,2013-05-14 00:19:00,
2013-05-13 19:24:00,75.1,-32.0,30.08,South,180,5.0,11.0,1,0.00,,,0.00,Weather View 32 v70,2013-05-14 00:24:00,
2013-05-13 19:29:00,74.8,-32.2,30.08,South,180,5.0,11.0,1,0.00,,,0.00,Weather View 32 v70,2013-05-14 00:29:00,
2013-05-13 19:34:00,74.6,-32.3,30.08,South,180,4.0,11.0,1,0.00,,,0.00,Weather View 32 v70,2013-05-14 00:34:00,
2013-05-13 19:39:00,74.2,-32.5,30.08,South,180,5.0,11.0,1,0.00,,,0.00,Weather View 32 v70,2013-05-14 00:39:00,
2013-05-13 19:44:00,73.7,-32.8,30.08,South,180,5.0,10.0,1,0.00,,,0.00,Weather View 32 v70,2013-05-14 00:44:00,
2013-05-13 19:49:00,73.2,-33.1,30.09,South,180,4.0,9.0,1,0.00,,,0.00,Weather View 32 v70,2013-05-14 00:49:00,
2013-05-13 19:54:00,72.6,-33.5,30.09,South,180,4.0,9.0,1,0.00,,,0.00,Weather View 32 v70,2013-05-14 00:54:00,
2013-05-13 19:59:00,72.1,-33.8,30.09,South,180,3.0,9.0,1,0.00,,,0.00,Weather View 32 v70,2013-05-14 00:59:00,
2013-05-13 20:04:00,71.5,-34.2,30.09,SSW,202,2.0,9.0,1,0.00,,,0.00,Weather View 32 v70,2013-05-14 01:04:00,
2013-05-13 20:09:00,71.0,-34.5,30.09,SSW,202,2.0,9.0,1,0.00,,,0.00,Weather View 32 v70,2013-05-14 01:09:00,
2013-05-13 20:14:00,70.6,-34.7,30.09,SW,225,2.0,7.0,1,0.00,,,0.00,Weather View 32 v70,2013-05-14 01:14:00,
2013-05-13 20:19:00,70.2,-34.9,30.09,SW,225,4.0,7.0,1,0.00,,,0.00,Weather View 32 v70,2013-05-14 01:19:00,
2013-05-13 20:24:00,69.8,-35.2,30.09,SSW,202,2.0,7.0,1,0.00,,,0.00,Weather View 32 v70,2013-05-14 01:24:00,
2013-05-13 20:29:00,69.5,-35.4,30.09,SSW,202,2.0,7.0,1,0.00,,,0.00,Weather View 32 v70,2013-05-14 01:29:00,
2013-05-13 20:34:00,69.2,-35.5,30.09,SSW,202,3.0,7.0,1,0.00,,,0.00,Weather View 32 v70,2013-05-14 01:34:00,
2013-05-13 20:39:00,68.9,-35.7,30.09,SW,225,3.0,7.0,1,0.00,,,0.00,Weather View 32 v70,2013-05-14 01:39:00,
2013-05-13 20:44:00,68.6,-35.9,30.09,SSW,202,2.0,7.0,1,0.00,,,0.00,Weather View 32 v70,2013-05-14 01:44:00,
2013-05-13 20:49:00,68.3,-36.1,30.09,SW,225,2.0,7.0,1,0.00,,,0.00,Weather View 32 v70,2013-05-14 01:49:00,
2013-05-13 20:54:00,67.9,-36.3,30.10,SSW,202,3.0,7.0,1,0.00,,,0.00,Weather View 32 v70,2013-05-14 01:54:00,
2013-05-13 20:59:00,67.7,-36.4,30.10,SSW,202,4.0,7.0,1,0.00,,,0.00,Weather View 32 v70,2013-05-14 01:59:00,
2013-05-13 21:04:00,67.5,-36.6,30.10,SW,225,3.0,7.0,1,0.00,,,0.00,Weather View 32 v70,2013-05-14 02:04:00,
2013-05-13 21:09:00,67.4,-36.6,30.10,SW,225,3.0,6.0,1,0.00,,,0.00,Weather View 32 v70,2013-05-14 02:09:00,
2013-05-13 21:14:00,67.2,-36.7,30.10,SW,225,4.0,6.0,1,0.00,,,0.00,Weather View 32 v70,2013-05-14 02:14:00,
2013-05-13 21:19:00,67.0,-36.9,30.10,SW,225,4.0,6.0,1,0.00,,,0.00,Weather View 32 v70,2013-05-14 02:19:00,
2013-05-13 21:24:00,66.9,-36.9,30.10,SW,225,4.0,6.0,1,0.00,,,0.00,Weather View 32 v70,2013-05-14 02:24:00,
2013-05-13 21:29:00,66.8,-37.0,30.10,WSW,247,4.0,6.0,1,0.00,,,0.00,Weather View 32 v70,2013-05-14 02:29:00,
2013-05-13 21:35:00,66.6,-37.1,30.10,SW,225,4.0,6.0,1,0.00,,,0.00,Weather View 32 v70,2013-05-14 02:35:00,
2013-05-13 21:40:00,66.5,-37.2,30.11,SW,225,5.0,7.0,1,0.00,,,0.00,Weather View 32 v70,2013-05-14 02:40:00,
2013-05-13 21:45:00,66.4,-37.2,30.11,SSW,202,5.0,7.0,1,0.00,,,0.00,Weather View 32 v70,2013-05-14 02:45:00,
2013-05-13 21:50:00,66.2,-37.3,30.11,SW,225,2.0,7.0,1,0.00,,,0.00,Weather View 32 v70,2013-05-14 02:50:00,
2013-05-13 21:55:00,65.9,-37.5,30.11,SW,225,6.0,7.0,1,0.00,,,0.00,Weather View 32 v70,2013-05-14 02:55:00,
2013-05-13 22:00:00,65.6,34.1,30.11,SW,225,6.0,7.0,31,0.00,,,0.00,Weather View 32 v70,2013-05-14 03:00:00,
2013-05-13 22:05:00,65.6,33.3,30.11,SW,225,2.0,7.0,30,0.00,,,0.00,Weather View 32 v70,2013-05-14 03:05:00,
2013-05-13 22:10:00,65.3,33.0,30.11,SSW,202,2.0,7.0,30,0.00,,,0.00,Weather View 32 v70,2013-05-14 03:10:00,
2013-05-13 22:15:00,64.9,33.5,30.11,SW,225,2.0,7.0,31,0.00,,,0.00,Weather View 32 v70,2013-05-14 03:15:00,
2013-05-13 22:20:00,64.7,33.3,30.11,SSW,202,1.0,7.0,31,0.00,,,0.00,Weather View 32 v70,2013-05-14 03:20:00,
2013-05-13 22:25:00,64.6,33.2,30.10,SW,225,2.0,7.0,31,0.00,,,0.00,Weather View 32 v70,2013-05-14 03:25:00,
2013-05-13 22:30:00,64.3,33.7,30.11,SW,225,2.0,7.0,32,0.00,,,0.00,Weather View 32 v70,2013-05-14 03:30:00,
2013-05-13 22:35:00,64.1,-38.6,30.11,SW,225,1.0,7.0,1,0.00,,,0.00,Weather View 32 v70,2013-05-14 03:35:00,
2013-05-13 22:40:00,63.9,-38.7,30.11,SW,225,2.0,7.0,1,0.00,,,0.00,Weather View 32 v70,2013-05-14 03:40:00,
2013-05-13 22:45:00,63.7,-38.8,30.11,SW,225,2.0,7.0,1,0.00,,,0.00,Weather View 32 v70,2013-05-14 03:45:00,
2013-05-13 22:50:00,63.5,-39.0,30.11,SW,225,2.0,7.0,1,0.00,,,0.00,Weather View 32 v70,2013-05-14 03:50:00,
2013-05-13 22:55:00,63.4,-39.0,30.11,SW,225,2.0,7.0,1,0.00,,,0.00,Weather View 32 v70,2013-05-14 03:55:00,
2013-05-13 23:00:00,63.2,-39.2,30.11,SW,225,1.0,7.0,1,0.00,,,0.00,Weather View 32 v70,2013-05-14 04:00:00,
2013-05-13 23:01:00,63.2,-39.2,30.11,SW,225,2.0,7.0,1,0.00,,,0.00,Weather View 32 v70,2013-05-14 04:01:00,
2013-05-13 23:05:00,63.0,33.4,30.11,SW,225,1.0,6.0,33,0.00,,,0.00,Weather View 32 v70,2013-05-14 04:05:00,
2013-05-13 23:10:00,62.9,33.3,30.11,SW,225,2.0,4.0,33,0.00,,,0.00,Weather View 32 v70,2013-05-14 04:10:00,
2013-05-13 23:15:00,62.7,33.1,30.11,SW,225,0.0,4.0,33,0.00,,,0.00,Weather View 32 v70,2013-05-14 04:15:00,
2013-05-13 23:20:00,62.3,33.5,30.11,SW,225,0.0,4.0,34,0.00,,,0.00,Weather View 32 v70,2013-05-14 04:20:00,
2013-05-13 23:25:00,61.9,33.9,30.10,WSW,247,0.0,4.0,35,0.00,,,0.00,Weather View 32 v70,2013-05-14 04:25:00,
2013-05-13 23:30:00,61.4,34.1,30.10,WSW,247,0.0,4.0,36,0.00,,,0.00,Weather View 32 v70,2013-05-14 04:30:00,
2013-05-13 23:35:00,60.9,33.7,30.10,WSW,247,0.0,4.0,36,0.00,,,0.00,Weather View 32 v70,2013-05-14 04:35:00,
2013-05-13 23:40:00,60.7,33.5,30.10,WSW,247,0.0,4.0,36,0.00,,,0.00,Weather View 32 v70,2013-05-14 04:40:00,
2013-05-13 23:45:00,60.8,33.6,30.10,WSW,247,1.0,4.0,36,0.00,,,0.00,Weather View 32 v70,2013-05-14 04:45:00,
2013-05-13 23:50:00,60.8,33.6,30.10,WSW,247,0.0,4.0,36,0.00,,,0.00,Weather View 32 v70,2013-05-14 04:50:00,
2013-05-13 23:55:00,60.6,33.4,30.10,WSW,247,0.0,2.0,36,0.00,,,0.00,Weather View 32 v70,2013-05-14 04:55:00,